Location: Bottenau
(48.5138°N, 8.0462°E)
Time: 04:01:22
(UTC+00:00)

BREEZE-M DEB (TANK) - Pass Details

Date: 18 April 2021
Orbit: 289 x 13026 km, 49.6° (Epoch: 09 May)

Event Time Altitude Azimuth Distance (km) Brightness Sun altitude
Rises 20:33:16 0° 266° (W) 2,852 6.6 -19.1°
Reaches altitude 10° 20:34:40 10° 267° (W) 2,264 6.0 -19.3°
Maximum altitude 20:39:31 84° 356° (N) 1,407 4.3 -19.8°
Drops below altitude 10° 20:59:48 10° 88° (E) 8,412 7.9 -22.1°
Sets 21:12:07 0° 91° (E) 11,878 8.7 -23.3°
